Torna al catalogo

ONEWEB-0184

AttivoComunicazioniPO
NORAD 48211·PAYLOAD·🇬🇧 United Kingdom

Lanciato Apr 25, 2021 da Vostochny Cosmodrome

Loading…

Prossimi Passaggi (prossime 24 ore)

TLE

AggiornatoSource: CelesTrak SupGP

Epoca: Sep 14, 2026, 21:40 UTC

1 48211C 21031B   26257.90326806  .00003107  00000+0  83902-2 0  2570
2 48211  87.8892 271.8125 0001988  72.2244 325.2020 13.14497547    13

Traccia ONEWEB-0184 in tempo reale con AllMySat

Download on the App Store